EW6553 Weather Reports


Display with metric or nautical units.
time (UTC)temp
F
wind
direction
speed
MPH
gust
MPH
rain 1hr
in
rain 24hr
in
rain mn
in
humidity
%
barometer
mb
20260505225207 85 339 3.0 9.0 0.00 0.00 0.00 56 1004.0
20260505224706 86 351 3.0 8.0 0.00 0.00 0.00 53 1003.9
20260505224205 87 5 4.0 16.0 0.00 0.00 0.00 52 1003.7
20260505223705 87 338 5.0 16.0 0.00 0.00 0.00 51 1003.7
20260505223436 87 333 4.0 11.0 0.00 0.00 0.00 50 1003.8
20260505222705 87 315 3.0 10.0 0.00 0.00 0.00 50 1003.8
20260505222208 87 355 3.0 10.0 0.00 0.00 0.00 49 1003.7
20260505221703 89 355 4.0 10.0 0.00 0.00 0.00 49 1003.5
20260505221425 88 340 5.0 11.0 0.00 0.00 0.00 49 1003.6
20260505220702 88 22 4.0 12.0 0.00 0.00 0.00 49 1003.4
20260505220208 89 341 4.0 12.0 0.00 0.00 0.00 50 1003.4
20260505215927 90 16 5.0 12.0 0.00 0.00 0.00 48 1003.4
20260505215159 92 259 4.0 12.0 0.00 0.00 0.00 46 1003.3
20260505214656 92 263 4.0 8.0 0.00 0.00 0.00 46 1003.5
20260505214142 93 343 5.0 10.0 0.00 0.00 0.00 45 1003.5
20260505213906 92 257 6.0 14.0 0.00 0.00 0.00 45 1003.4
20260505213141 93 233 5.0 14.0 0.00 0.00 0.00 45 1003.3
20260505212913 93 256 4.0 9.0 0.00 0.00 0.00 48 1003.4
20260505212144 92 294 6.0 11.0 0.00 0.00 0.00 46 1003.4
20260505211642 92 214 6.0 11.0 0.00 0.00 0.00 47 1003.5
20260505211141 92 225 5.0 10.0 0.00 0.00 0.00 49 1003.6
20260505210639 93 281 5.0 10.0 0.00 0.00 0.00 49 1003.7
20260505210629 92 253 6.0 14.0 0.00 0.00 0.00 48 1003.7
20260505205637 92 240 7.0 14.0 0.00 0.00 0.00 48 1003.7
20260505205358 92 212 6.0 12.0 0.00 0.00 0.00 48 1003.8
20260505204637 92 285 5.0 11.0 0.00 0.00 0.00 49 1003.9
20260505204136 92 308 6.0 12.0 0.00 0.00 0.00 50 1003.9
20260505203636 91 241 5.0 12.0 0.00 0.00 0.00 52 1004.0
20260505203134 92 244 6.0 14.0 0.00 0.00 0.00 53 1004.0
20260505202633 91 228 7.0 14.0 0.00 0.00 0.00 52 1004.1
20260505202132 91 241 6.0 13.0 0.00 0.00 0.00 51 1004.2
20260505201633 91 229 6.0 14.0 0.00 0.00 0.00 51 1004.4
20260505201130 91 235 7.0 14.0 0.00 0.00 0.00 52 1004.2
20260505200628 91 297 7.0 14.0 0.00 0.00 0.00 52 1004.2
20260505200122 92 227 6.0 13.0 0.00 0.00 0.00 56 1004.5
20260505195621 91 222 6.0 13.0 0.00 0.00 0.00 54 1004.5
20260505195120 91 232 5.0 10.0 0.00 0.00 0.00 55 1004.4
20260505194842 91 248 5.0 10.0 0.00 0.00 0.00 58 1004.5
20260505194120 90 231 5.0 11.0 0.00 0.00 0.00 57 1004.5
20260505193620 89 244 7.0 14.0 0.00 0.00 0.00 57 1004.5
20260505193120 89 242 8.0 14.0 0.00 0.00 0.00 59 1004.5
20260505192620 89 237 8.0 15.0 0.00 0.00 0.00 59 1004.8
20260505192120 89 227 9.0 18.0 0.00 0.00 0.00 57 1004.6
20260505191620 88 234 10.0 18.0 0.00 0.00 0.00 61 1004.6
20260505191121 87 222 9.0 17.0 0.00 0.00 0.00 59 1004.6
20260505190620 88 181 7.0 15.0 0.00 0.00 0.00 59 1004.5
20260505190121 88 248 6.0 12.0 0.00 0.00 0.00 60 1004.6
20260505185619 87 234 7.0 12.0 0.00 0.00 0.00 62 1004.5
20260505185345 87 103 8.0 13.0 0.00 0.00 0.00 63 1004.8
20260505184620 86 217 8.0 14.0 0.00 0.00 0.00 62 1004.7
20260505184120 86 253 8.0 15.0 0.00 0.00 0.00 63 1004.8
20260505183843 85 237 7.0 16.0 0.00 0.00 0.00 64 1004.8
20260505183344 85 217 7.0 16.0 0.00 0.00 0.00 63 1004.8
20260505182616 85 243 8.0 13.0 0.00 0.00 0.00 65 1004.9
20260505182117 85 243 8.0 13.0 0.00 0.00 0.00 66 1004.8
20260505181617 85 244 8.0 14.0 0.00 0.00 0.00 65 1004.9
20260505181118 84 212 7.0 14.0 0.00 0.00 0.00 64 1004.9
20260505180620 84 239 8.0 16.0 0.00 0.00 0.00 66 1004.9
20260505180117 84 207 8.0 17.0 0.00 0.00 0.00 65 1005.0
20260505175616 83 225 9.0 17.0 0.00 0.00 0.00 66 1005.0
20260505175114 83 238 7.0 16.0 0.00 0.00 0.00 68 1005.0
20260505174614 83 223 6.0 15.0 0.00 0.00 0.00 66 1004.9
20260505174114 83 211 6.0 15.0 0.00 0.00 0.00 65 1005.0
20260505173610 83 234 8.0 17.0 0.00 0.00 0.00 67 1005.0
20260505173110 83 231 9.0 17.0 0.00 0.00 0.00 66 1005.0
20260505172610 83 246 9.0 16.0 0.00 0.00 0.00 66 1005.1
20260505172110 82 246 8.0 16.0 0.00 0.00 0.00 67 1005.1
20260505171609 82 209 7.0 14.0 0.00 0.00 0.00 67 1005.1
20260505171110 82 223 7.0 13.0 0.00 0.00 0.00 69 1005.4
20260505170610 82 243 7.0 13.0 0.00 0.00 0.00 67 1005.0
20260505170110 82 205 7.0 16.0 0.00 0.00 0.00 66 1005.1
20260505165610 82 226 8.0 17.0 0.00 0.00 0.00 66 1005.0
20260505165106 83 235 7.0 17.0 0.00 0.00 0.00 66 1004.9
20260505164606 83 233 7.0 15.0 0.00 0.00 0.00 68 1005.0
20260505164106 82 225 7.0 15.0 0.00 0.00 0.00 70 1005.0
20260505163606 80 213 7.0 15.0 0.00 0.00 0.00 71 1005.0
20260505163107 80 188 8.0 15.0 0.00 0.00 0.00 70 1005.0
20260505162606 80 249 8.0 15.0 0.00 0.00 0.00 71 1004.9
20260505162106 81 224 9.0 17.0 0.00 0.00 0.00 70 1004.9
20260505161606 80 224 10.0 17.0 0.00 0.00 0.00 71 1005.0
20260505161106 80 244 9.0 17.0 0.00 0.00 0.00 70 1005.0
20260505160602 80 228 8.0 18.0 0.00 0.00 0.00 71 1004.8
20260505153101 77 208 7.0 14.0 0.00 0.00 0.00 75 1004.5
20260505152600 77 217 7.0 14.0 0.00 0.00 0.00 75 1004.7
20260505152059 77 236 5.0 14.0 0.00 0.00 0.00 74 1004.8
20260505151823 77 219 7.0 18.0 0.00 0.00 0.00 75 1004.8
20260505151056 76 225 8.0 18.0 0.00 0.00 0.00 76 1004.9
20260505150556 76 200 8.0 16.0 0.00 0.00 0.00 77 1004.9
20260505150319 76 238 8.0 18.0 0.00 0.00 0.00 76 1004.8
20260505140538 74 180 8.0 18.0 0.00 0.00 0.00 80 1004.9
20260505125014 71 211 6.0 11.0 0.00 0.00 0.00 85 1004.1
20260505124511 70 217 6.0 13.0 0.00 0.00 0.00 85 1004.0
20260505124010 70 215 7.0 14.0 0.00 0.00 0.00 85 1004.0
20260505123726 70 205 7.0 14.0 0.00 0.00 0.00 85 1003.9
20260505123228 70 196 7.0 14.0 0.00 0.00 0.00 85 1003.9
20260505122505 70 219 7.0 14.0 0.00 0.00 0.00 85 1003.8
20260505122004 70 206 7.0 14.0 0.00 0.00 0.00 85 1003.8
20260505121503 70 209 7.0 15.0 0.00 0.00 0.00 85 1003.7
20260505121003 70 216 6.0 15.0 0.00 0.00 0.00 85 1003.6
20260505120503 70 227 7.0 12.0 0.00 0.00 0.00 85 1003.4
20260505120003 70 221 7.0 12.0 0.00 0.00 0.00 85 1003.5
20260505115501 70 146 7.0 14.0 0.00 0.00 0.00 85 1003.6
20260505115000 70 211 7.0 14.0 0.00 0.00 0.00 85 1003.7
20260505114504 70 192 7.0 13.0 0.00 0.00 0.00 85 1003.6
20260505114004 70 210 6.0 13.0 0.00 0.00 0.00 85 1003.6
20260505113507 70 210 7.0 14.0 0.00 0.00 0.00 85 1003.5
20260505113005 70 128 6.0 14.0 0.00 0.00 0.00 85 1003.5
20260505112726 70 238 6.0 14.0 0.00 0.00 0.00 85 1003.5
20260505112004 70 219 7.0 14.0 0.00 0.00 0.00 85 1003.4
20260505111736 70 215 7.0 13.0 0.00 0.00 0.00 85 1003.5
20260505111004 70 217 7.0 13.0 0.00 0.00 0.00 85 1003.5
20260505110505 70 138 7.0 13.0 0.00 0.00 0.00 85 1003.5
20260505102005 70 184 6.0 14.0 0.00 0.00 0.00 84 1003.5
20260505101502 70 209 6.0 16.0 0.00 0.00 0.00 83 1003.6
20260505101001 70 250 6.0 16.0 0.00 0.00 0.00 83 1003.5
20260505100501 70 200 6.0 12.0 0.00 0.00 0.00 83 1003.6
20260505100230 70 225 8.0 17.0 0.00 0.00 0.00 83 1003.5
20260505095453 71 224 8.0 18.0 0.00 0.00 0.00 83 1003.6
20260505094949 71 211 7.0 18.0 0.00 0.00 0.00 83 1003.6
20260505094449 71 188 6.0 14.0 0.00 0.00 0.00 83 1003.4
20260505093949 71 220 7.0 17.0 0.00 0.00 0.00 83 1003.5
20260505093449 71 207 7.0 17.0 0.00 0.00 0.00 82 1003.7
20260505092949 71 224 7.0 17.0 0.00 0.00 0.00 82 1003.7
20260505092449 71 229 7.0 16.0 0.00 0.00 0.00 82 1003.6
20260505091949 71 217 6.0 16.0 0.00 0.00 0.00 82 1003.7
20260505091450 71 167 7.0 14.0 0.00 0.00 0.00 82 1003.8
20260505091220 71 216 7.0 14.0 0.00 0.00 0.00 81 1003.9
20260505090449 71 219 7.0 16.0 0.00 0.00 0.00 81 1004.0
20260505090217 72 234 7.0 16.0 0.00 0.00 0.00 81 1004.0
20260505085450 72 208 7.0 16.0 0.00 0.00 0.00 81 1003.9
20260505084949 72 205 7.0 16.0 0.00 0.00 0.00 80 1003.9
20260505084454 72 211 7.0 16.0 0.00 0.00 0.00 80 1004.0
20260505083952 72 224 7.0 16.0 0.00 0.00 0.00 80 1004.1
20260505083452 72 218 7.0 16.0 0.00 0.00 0.00 80 1004.0
20260505082950 72 220 7.0 16.0 0.00 0.00 0.00 80 1004.0
20260505082445 72 223 7.0 18.0 0.00 0.00 0.00 79 1004.0
20260505081944 72 212 7.0 18.0 0.00 0.00 0.00 79 1003.9
20260505081710 72 214 6.0 18.0 0.00 0.00 0.00 79 1003.9
20260505080945 72 77 6.0 16.0 0.00 0.00 0.00 79 1003.9
20260505080445 73 193 6.0 16.0 0.00 0.00 0.00 78 1004.0
20260505075945 73 234 6.0 16.0 0.00 0.00 0.00 78 1003.9
20260505075709 73 205 5.0 16.0 0.00 0.00 0.00 78 1004.0
20260505074945 73 216 5.0 12.0 0.00 0.00 0.00 78 1004.0
20260505074443 73 213 6.0 14.0 0.00 0.00 0.00 77 1004.1
20260505073943 73 205 6.0 14.0 0.00 0.00 0.00 77 1004.4
20260505073442 73 232 6.0 13.0 0.00 0.00 0.00 77 1004.5
20260505072944 73 192 5.0 13.0 0.00 0.00 0.00 76 1004.5
20260505072443 73 206 5.0 14.0 0.00 0.00 0.00 76 1004.7
20260505071938 73 212 6.0 14.0 0.00 0.00 0.00 75 1004.8
20260505071439 73 214 6.0 16.0 0.00 0.00 0.00 75 1004.9
20260505070939 73 208 6.0 16.0 0.00 0.00 0.00 75 1005.0
20260505070735 73 196 7.0 15.0 0.00 0.00 0.00 75 1005.0
20260505065939 74 221 6.0 12.0 0.00 0.00 0.00 74 1005.1
20260505065438 74 213 7.0 13.0 0.00 0.00 0.00 74 1005.1
20260505064939 74 224 7.0 13.0 0.00 0.00 0.00 74 1005.2
20260505064707 74 234 7.0 16.0 0.00 0.00 0.00 74 1005.2
20260505063939 74 223 7.0 16.0 0.00 0.00 0.00 73 1005.4
20260505063435 74 207 6.0 15.0 0.00 0.00 0.00 73 1005.4
20260505062935 74 225 6.0 16.0 0.00 0.00 0.00 73 1005.4
20260505062434 74 223 6.0 16.0 0.00 0.00 0.00 73 1005.4
20260505061934 74 161 6.0 12.0 0.00 0.00 0.00 72 1005.4
20260505061435 74 207 5.0 11.0 0.00 0.00 0.00 72 1005.5
20260505060935 74 225 5.0 13.0 0.00 0.00 0.00 72 1005.4
20260505060705 74 221 5.0 19.0 0.00 0.00 0.00 71 1005.5
20260505055935 75 175 5.0 19.0 0.00 0.00 0.00 71 1005.5
20260505055435 75 157 5.0 13.0 0.00 0.00 0.00 70 1005.4
20260505054931 75 201 5.0 11.0 0.00 0.00 0.00 70 1005.5
20260505054431 75 182 6.0 12.0 0.00 0.00 0.00 70 1005.4
20260505053930 75 215 5.0 14.0 0.00 0.00 0.00 69 1005.3
20260505053657 75 211 5.0 15.0 0.00 0.00 0.00 69 1005.3
20260505052928 76 205 5.0 15.0 0.00 0.00 0.00 69 1005.4
20260505052429 76 205 5.0 14.0 0.00 0.00 0.00 69 1005.4
20260505051929 75 199 5.0 14.0 0.00 0.00 0.00 69 1005.3
20260505051429 75 205 4.0 10.0 0.00 0.00 0.00 70 1005.3
20260505050929 75 223 4.0 9.0 0.00 0.00 0.00 70 1005.3
20260505050429 75 221 4.0 9.0 0.00 0.00 0.00 70 1005.5
20260505041421 75 199 4.0 11.0 0.00 0.00 0.00 70 1005.7
20260505040919 75 210 4.0 11.0 0.00 0.00 0.00 70 1005.7
20260505040417 75 217 4.0 9.0 0.00 0.00 0.00 70 1005.8
20260505035916 75 230 4.0 12.0 0.00 0.00 0.00 70 1005.7
20260505035416 75 199 5.0 12.0 0.00 0.00 0.00 70 1005.7
20260505034916 75 201 5.0 11.0 0.00 0.00 0.00 70 1005.7
20260505034416 75 219 5.0 10.0 0.00 0.00 0.00 70 1005.8
20260505033917 75 221 5.0 10.0 0.00 0.00 0.00 70 1005.7
20260505033417 75 200 5.0 11.0 0.00 0.00 0.00 70 1005.6
20260505032914 75 201 5.0 11.0 0.00 0.00 0.00 70 1005.7
20260505032414 75 209 5.0 12.0 0.00 0.00 0.00 70 1005.6
20260505031914 75 210 4.0 12.0 0.00 0.00 0.00 70 1005.6
20260505031413 75 214 4.0 9.0 0.00 0.00 0.00 69 1005.7
20260505031134 75 214 5.0 15.0 0.00 0.00 0.00 69 1005.6
20260505030412 76 217 5.0 15.0 0.00 0.00 0.00 69 1005.7
20260505025912 76 217 4.0 12.0 0.00 0.00 0.00 69 1005.8
20260505025410 76 219 4.0 10.0 0.00 0.00 0.00 69 1005.9
20260505024910 76 150 4.0 9.0 0.00 0.00 0.00 68 1005.9
20260505024408 76 205 3.0 10.0 0.00 0.00 0.00 68 1005.9
20260505023905 76 194 4.0 10.0 0.00 0.00 0.00 68 1005.9
20260505023404 76 212 4.0 10.0 0.00 0.00 0.00 68 1005.7
20260505022904 76 157 3.0 10.0 0.00 0.00 0.00 68 1005.7
20260505022404 76 205 4.0 9.0 0.00 0.00 0.00 68 1005.8
20260505021902 76 191 3.0 9.0 0.00 0.00 0.00 68 1005.8
20260505021401 76 167 4.0 15.0 0.00 0.00 0.00 68 1005.6
20260505021126 76 219 4.0 15.0 0.00 0.00 0.00 68 1005.5
20260505020402 76 148 4.0 12.0 0.00 0.00 0.00 67 1005.6
20260505015902 76 163 3.0 12.0 0.00 0.00 0.00 67 1005.7
20260505015401 76 223 3.0 8.0 0.00 0.00 0.00 67 1005.7
20260505015122 76 228 4.0 9.0 0.00 0.00 0.00 67 1005.6
20260505014402 76 194 3.0 9.0 0.00 0.00 0.00 67 1005.6
20260505013901 76 201 3.0 8.0 0.00 0.00 0.00 67 1005.7
20260505013402 76 206 4.0 12.0 0.00 0.00 0.00 67 1005.7
20260505012901 76 198 4.0 12.0 0.00 0.00 0.00 67 1005.7
20260505012402 76 206 4.0 12.0 0.00 0.00 0.00 67 1005.5
20260505011901 76 218 4.0 10.0 0.00 0.00 0.00 67 1005.5
20260505011405 76 188 4.0 12.0 0.00 0.00 0.00 66 1005.8
20260505010906 77 184 4.0 14.0 0.00 0.00 0.00 66 1005.7
20260505010630 77 209 5.0 14.0 0.00 0.00 0.00 66 1005.7
20260505005906 77 211 4.0 12.0 0.00 0.00 0.00 66 1005.7
20260505005402 77 163 4.0 14.0 0.00 0.00 0.00 65 1005.8
20260505004901 77 170 4.0 14.0 0.00 0.00 0.00 65 1005.8
20260505004402 77 152 5.0 17.0 0.00 0.00 0.00 65 1005.7
20260505003900 78 215 5.0 17.0 0.00 0.00 0.00 65 1005.7
20260505003401 78 158 5.0 11.0 0.00 0.00 0.00 64 1005.7
20260505002901 78 171 5.0 14.0 0.00 0.00 0.00 64 1005.8
20260505002401 78 187 5.0 14.0 0.00 0.00 0.00 63 1006.0
20260505002118 79 219 4.0 14.0 0.00 0.00 0.00 63 1005.9
20260505001622 79 197 4.0 10.0 0.00 0.00 0.00 63 1005.9
20260505001120 79 225 5.0 10.0 0.00 0.00 0.00 63 1005.9
20260505000358 79 215 5.0 14.0 0.00 0.00 0.00 62 1005.9
20260504235856 79 191 6.0 16.0 0.00 0.00 0.00 62 1006.0
20260504235851 79 188 7.0 16.0 0.00 0.00 0.00 62 1006.0
20260504234857 79 56 5.0 15.0 0.00 0.00 0.00 61 1006.0
20260504234356 80 219 5.0 13.0 0.00 0.00 0.00 62 1005.9
20260504233856 80 153 6.0 13.0 0.00 0.00 0.00 61 1006.0
20260504233621 80 209 5.0 13.0 0.00 0.00 0.00 61 1006.2
20260504232854 80 212 6.0 14.0 0.00 0.00 0.00 61 1006.2
20260504232355 80 200 6.0 14.0 0.00 0.00 0.00 60 1006.1
20260504231849 80 211 6.0 13.0 0.00 0.00 0.00 60 1006.1
20260504231348 80 217 7.0 13.0 0.00 0.00 0.00 59 1006.1
20260504230847 80 236 7.0 16.0 0.00 0.00 0.00 59 1006.1
20260504230348 81 199 7.0 16.0 0.00 0.00 0.00 59 1006.3
20260504230115 81 169 7.0 19.0 0.00 0.00 0.00 59 1006.1
20260504225348 81 213 6.0 19.0 0.00 0.00 0.00 59 1006.4